Showing default

SNAP-3 EDDIE, 40972

Orbit data source: Space-Track

SNAP-3 EDDIE, 40972 is a payload satellite owned by SMDC (US) in LEO that was launched on Thu, 08 Oct 2015 UTC via an ATLAS V 401 launch vehicle from the Air Force Western Test Range (AFWTR). Payloads include a variety of satellites, spacecraft, and rockets equipped with specific instruments for various scientific and technological missions. These include communications satellites like Starlink; space stations such as the ISS; scientific satellites like the Hubble; Earth observation satellites from companies like Planet Labs, Umbra, and HawkEye 360; GPS; miniature CubeSats for education and research; and military/defense satellites.

Loading next visibility...
SNAP-3 EDDIE details
Identifier
40972, 2015-058J
Orbit
LEO
Last TLE update17 hours ago
Origin
Flag of USSMDC (US)
ManufacturerDuocomm Miltec
MissionOperational Defense Communications
Bus & MotorCUBESAT 3U, Unknown motor
Mass5.3 kg wet, 4.5 kg dry
Launch date (UTC)
2015-10-08 (9 years ago)
Launch vehicle
ATLAS V 401
Launch site
Air Force Western Test Range (AFWTR)
Object type
Payload
Rocket body
Debris
Shape & HBRBox + 8 Pan, 0.5 m
Radar Cross Section0.085 m², Small (<0.1 m²)

Expand to show TLE details & history

TLE from 17 hours ago
0 SNAP-3 EDDIE
1 40972U 15058J   25018.26246951  .00035625  00000-0  17716-2 0  9997
2 40972  64.7653 357.8518 0123814 238.6112 120.2851 15.10916084 40204
Epoch: 2025-01-18T06:17Z
Definitive object data (Epoch: 2025-01-18T06:17:57.365Z)
Latitude-0.0001°
Longitude145.44846°
Altitude579.372 km
Speed7.547 km/s
True Right ascension23h 51m 24s
True Declination0° 00' 00"
Sunlit
Object was in daylight at TLE epoch
Visualization TLE readout
Latitude-22.24088°
Longitude132.07889°
Altitude550.277 km
Speed7.581 km/s
Apparent Right ascension19h 54m 57s
Apparent Declination-67° 24' 04"
Sunlit
Object is in daylight
Visualization observer readout
Local Sidereal Time00:33:50
Azimuth204.43° SW
Elevation-29.357°
Doppler factor1
Orbital elements
Apogee altitude617.517 km
Perigee altitude446.404 km
Semi-major axis6,910.097 km
Eccentricity0.0123814
Inclination64.7653°
RAAN357.8518°
Arg. of periapsis238.6112°
True anomaly121.50069°
Mean anomaly120.2851°
Eccentric anomaly120.89385°
Mean motion3.77848 °/min
BSTAR0.0017716
Orbital period95.28 mins
Loading maneuver chart data...
Loading historical data...
Loading historical data...
Loading historical data...
Loading historical data...
Loading historical data...
Loading historical data...
Loading historical data...

SNAP-3 EDDIE Visibility forecast

Observer location: undefined°, undefined

Span
Click to sort rows by Start time (UTC) header in descending order
Start Az.
Max El. time (UTC)
Max El. Az.
Max El.
End time (UTC)
End Az.
8 mins2025-01-18 23:53:48.649Z193.424° SSW2025-01-18 23:57:48.649Z125.952° SE38.595°2025-01-19 00:01:48.649Z42.775° NE
4 mins2025-01-19 01:34:48.649Z288.838° WNW2025-01-19 01:36:48.649Z323.689° NNW18.237°2025-01-19 01:38:48.649Z353.81° N
5 mins2025-01-19 08:15:48.649Z7.676° NNE2025-01-19 08:17:48.649Z52.07° ENE24.95°2025-01-19 08:20:48.649Z105.882° ESE
5 mins2025-01-19 09:53:48.649Z287.577° WNW2025-01-19 09:55:48.649Z243.245° WSW24.256°2025-01-19 09:58:48.649Z190.708° SSW
|